| time (UTC) | temp F | wind direction | speed MPH | gust MPH | rain 1hr in | rain 24hr in | rain mn in | humidity % | barometer mb |
| 20260505053033 | 36 | 337 | 9.0 | 12.0 | 0.00 | 0.00 | 0.00 | 56 | 1017.2 |
| 20260505051529 | 36 | 339 | 8.0 | 12.0 | 0.00 | 0.00 | 0.00 | 56 | 1017.0 |
| 20260505041522 | 37 | 351 | 10.0 | 15.0 | 0.00 | 0.00 | 0.00 | 55 | 1016.7 |
| 20260505040021 | 37 | 351 | 14.0 | 18.0 | 0.00 | 0.00 | 0.00 | 54 | 1016.6 |
| 20260505034525 | 37 | 351 | 8.0 | 11.0 | 0.00 | 0.00 | 0.00 | 54 | 1016.5 |
| 20260505033015 | 38 | 350 | 8.0 | 12.0 | 0.00 | 0.00 | 0.00 | 53 | 1016.2 |
| 20260505031511 | 39 | 354 | 8.0 | 12.0 | 0.00 | 0.00 | 0.00 | 52 | 1015.9 |
| 20260505030029 | 39 | 358 | 9.0 | 16.0 | 0.00 | 0.00 | 0.00 | 51 | 1015.6 |
| 20260505024514 | 40 | 348 | 12.0 | 19.0 | 0.00 | 0.00 | 0.00 | 50 | 1015.4 |
| 20260505023006 | 40 | 342 | 15.0 | 21.0 | 0.00 | 0.00 | 0.00 | 50 | 1015.1 |
| 20260505021504 | 40 | 350 | 14.0 | 21.0 | 0.00 | 0.00 | 0.00 | 49 | 1014.8 |
| 20260505020002 | 41 | 346 | 14.0 | 20.0 | 0.00 | 0.00 | 0.00 | 50 | 1014.5 |
| 20260505014603 | 41 | 352 | 15.0 | 21.0 | 0.00 | 0.00 | 0.00 | 49 | 1014.3 |
| 20260505013058 | 42 | 341 | 16.0 | 21.0 | 0.00 | 0.00 | 0.00 | 49 | 1014.0 |
| 20260505011601 | 42 | 326 | 18.0 | 24.0 | 0.00 | 0.00 | 0.00 | 48 | 1013.8 |
| 20260505010109 | 42 | 325 | 15.0 | 27.0 | 0.00 | 0.00 | 0.00 | 49 | 1013.7 |
| 20260505004610 | 43 | 330 | 17.0 | 23.0 | 0.00 | 0.00 | 0.00 | 47 | 1013.6 |
| 20260505003057 | 43 | 327 | 18.0 | 25.0 | 0.00 | 0.00 | 0.00 | 47 | 1013.5 |
| 20260505001551 | 43 | 323 | 18.0 | 29.0 | 0.00 | 0.00 | 0.00 | 46 | 1013.2 |
| 20260504234549 | 44 | 323 | 21.0 | 29.0 | 0.00 | 0.00 | 0.00 | 45 | 1013.0 |
| 20260504233049 | 44 | 333 | 20.0 | 30.0 | 0.00 | 0.00 | 0.00 | 44 | 1012.8 |
| 20260504231617 | 45 | 316 | 21.0 | 29.0 | 0.00 | 0.00 | 0.00 | 43 | 1012.7 |
| 20260504230045 | 45 | 312 | 23.0 | 32.0 | 0.00 | 0.00 | 0.00 | 43 | 1012.5 |
| 20260504224544 | 45 | 323 | 24.0 | 32.0 | 0.00 | 0.00 | 0.00 | 43 | 1012.3 |
| 20260504223046 | 45 | 314 | 20.0 | 29.0 | 0.00 | 0.00 | 0.00 | 45 | 1012.4 |
| 20260504221605 | 45 | 325 | 21.0 | 30.0 | 0.00 | 0.00 | 0.00 | 46 | 1012.2 |
| 20260504220041 | 45 | 327 | 19.0 | 30.0 | 0.00 | 0.00 | 0.00 | 47 | 1012.2 |
| 20260504214540 | 45 | 308 | 23.0 | 35.0 | 0.00 | 0.00 | 0.00 | 47 | 1012.2 |
| 20260504213044 | 44 | 327 | 19.0 | 25.0 | 0.00 | 0.00 | 0.00 | 50 | 1012.2 |
| 20260504211539 | 44 | 328 | 22.0 | 29.0 | 0.00 | 0.00 | 0.00 | 50 | 1012.3 |
| 20260504210045 | 44 | 323 | 21.0 | 26.0 | 0.00 | 0.00 | 0.00 | 49 | 1012.0 |
| 20260504204537 | 45 | 330 | 24.0 | 29.0 | 0.00 | 0.00 | 0.00 | 47 | 1012.1 |
| 20260504203036 | 45 | 310 | 22.0 | 34.0 | 0.00 | 0.00 | 0.00 | 47 | 1012.1 |
| 20260504201534 | 45 | 318 | 21.0 | 31.0 | 0.00 | 0.00 | 0.00 | 45 | 1012.0 |
| 20260504200034 | 45 | 308 | 22.0 | 34.0 | 0.00 | 0.00 | 0.00 | 46 | 1012.0 |
| 20260504194532 | 45 | 339 | 25.0 | 33.0 | 0.00 | 0.00 | 0.00 | 46 | 1011.8 |
| 20260504193032 | 45 | 322 | 22.0 | 32.0 | 0.00 | 0.00 | 0.00 | 47 | 1011.7 |
| 20260504191554 | 45 | 327 | 19.0 | 29.0 | 0.00 | 0.00 | 0.00 | 47 | 1011.8 |
| 20260504190030 | 45 | 300 | 22.0 | 29.0 | 0.00 | 0.00 | 0.00 | 47 | 1011.8 |
| 20260504184540 | 44 | 329 | 24.0 | 30.0 | 0.00 | 0.00 | 0.00 | 48 | 1011.6 |
| 20260504183029 | 44 | 315 | 19.0 | 28.0 | 0.00 | 0.00 | 0.00 | 50 | 1011.7 |
| 20260504181532 | 44 | 310 | 20.0 | 28.0 | 0.00 | 0.00 | 0.00 | 51 | 1011.8 |
| 20260504180033 | 43 | 324 | 23.0 | 31.0 | 0.00 | 0.00 | 0.00 | 51 | 1011.8 |
| 20260504174527 | 43 | 329 | 19.0 | 28.0 | 0.00 | 0.00 | 0.00 | 51 | 1011.7 |
| 20260504173025 | 43 | 335 | 21.0 | 29.0 | 0.00 | 0.00 | 0.00 | 51 | 1011.7 |
| 20260504171524 | 43 | 312 | 22.0 | 30.0 | 0.00 | 0.00 | 0.00 | 51 | 1011.5 |
| 20260504081601 | 47 | 11 | 12.0 | 17.0 | 0.00 | 0.00 | 0.00 | 47 | 1007.8 |
| 20260504081500 | 47 | 356 | 13.0 | 17.0 | 0.00 | 0.00 | 0.00 | 47 | 1007.7 |